This is the latest recevied weather packets stored in our database for station/object DL9GJ-6. If no packets are shown the sender has not sent any weather packets the latest 10 day(s).
| Time | Temp. | Humidity | Pressure | Rain* | Wind** | Luminosity | Snow |
|---|---|---|---|---|---|---|---|
| 1778310844 | 12.78° C | 78% | 1016.9 hPa | 0 mm | - | 563 W/m² | - |
| 1778310709 | 12.78° C | 78% | 1016.9 hPa | 0 mm | - | 563 W/m² | - |
| 1778310350 | 12.78° C | 79% | 1016.9 hPa | 0 mm | - | 392 W/m² | - |
| 1778310125 | 12.22° C | 79% | 1016.9 hPa | 0 mm | - | 279 W/m² | - |
| 1778309988 | 12.22° C | 79% | 1016.7 hPa | 0 mm | - | 340 W/m² | - |
| 1778309764 | 12.22° C | 79% | 1016.7 hPa | 0 mm | - | 340 W/m² | - |
| 1778309629 | 12.22° C | 81% | 1016.7 hPa | 0 mm | - | 247 W/m² | - |
| 1778309269 | 11.67° C | 80% | 1016.8 hPa | 0 mm | - | 217 W/m² | - |
| 1778308908 | 11.67° C | 80% | 1016.7 hPa | 0 mm | - | 209 W/m² | - |
| 1778308549 | 11.67° C | 80% | 1016.7 hPa | 0 mm | - | 135 W/m² | - |
| 1778308324 | 11.67° C | 82% | 1016.6 hPa | 0 mm | - | 332 W/m² | - |
| 1778308189 | 11.11° C | 84% | 1016.6 hPa | 0 mm | - | 362 W/m² | - |
| 1778307828 | 11.11° C | 84% | 1016.7 hPa | 0 mm | - | 251 W/m² | - |
| 1778307469 | 10.56° C | 85% | 1016.8 hPa | 0 mm | - | 188 W/m² | - |
| 1778307244 | 10.56° C | 85% | 1016.7 hPa | 0 mm | - | 120 W/m² | - |
| 1778307109 | 10.56° C | 85% | 1016.7 hPa | 0 mm | - | 120 W/m² | - |
| 1778306748 | 10.56° C | 86% | 1016.6 hPa | 0 mm | - | 114 W/m² | - |
| 1778306525 | 10° C | 86% | 1016.6 hPa | 0 mm | - | 112 W/m² | - |
| 1778306389 | 10° C | 86% | 1016.6 hPa | 0 mm | - | 104 W/m² | - |
| 1778306029 | 10° C | 86% | 1016.7 hPa | 0 mm | - | 95 W/m² | - |
| 1778305806 | 10° C | 86% | 1016.7 hPa | 0 mm | - | 95 W/m² | - |
| 1778305669 | 10° C | 86% | 1016.6 hPa | 0 mm | - | 90 W/m² | - |
| 1778305445 | 10° C | 87% | 1016.7 hPa | 0 mm | - | 85 W/m² | - |
| 1778305310 | 10° C | 87% | 1016.7 hPa | 0 mm | - | 85 W/m² | - |
| 1778305084 | 9.44° C | 88% | 1016.7 hPa | 0 mm | - | 78 W/m² | - |
* Rain latest hour (hover to see other rain measurements)
** Current wind speed in m/s (hover to see current wind gust speed)